GSAT0227 (PRN E06)

Last updated on Wed Jun 26 2024 00:03:10 GMT+0000 (Coordinated Universal Time)

1 59600U 24079C 24162.27733522 .00000017 00000+0 00000+0 0 9994 2 59600 54.6843 121.7029 0021406 254.7950 104.9177 1.72327413 794
UTC large
Height (km)
Speed (km/s)
/
Latitude / Longitude
Inclination (degrees)
Orbital Period (minutes)
Azimuth
Elevation
Range (km)
Doppler Factor

Next 0 passes for location: London (51.5072 / 0.1276)

Sorry there are no passes over London.